Tracking 30415 objects as of 14-May-2025
HD Live streaming from Space Station
objects crossing your sky now

SL-8 R/B

Track SL-8 R/B now!
10-day predictions


NORAD ID: 4370
Int'l Code: 1970-028B
Perigee: 680.3 km
Apogee: 702.3 km
Inclination: 74.0 °
Period: 98.4 minutes
Semi major axis: 7062 km
RCS: 4.6155 m2 (large)
Launch date: April 11, 1970
Source: Commonwealth of Independent States (former USSR) (CIS)
Launch site: PLESETSK MISSILE AND SPACE COMPLEX (PKMTR)

Note: This is a ROCKET BODY
Your satellite tracking list
Your tracking list is empty




NASA's NSSDC Master Catalog

Two Line Element Set (TLE):
1 04370U 70028B   25134.53277997  .00000490  00000-0  10182-3 0  9993
2 04370  74.0389 334.7313 0015579 237.0246 122.9424 14.62794785433166
Source of the keplerian elements: AFSPC